STARLINK-36988, 67998

Orbit data source: Space-Track

STARLINK-36988, 67998 is a payload satellite owned by SpaceX/Seattle (US) in LEO that was launched on Fri, 27 Feb 2026 UTC via an FALCON 9 launch vehicle from the Air Force Eastern Test Range (AFETR). Payload-class satellites include a variety of spacecraft equipped with specific instruments for various scientific and technological missions. These include communications satellites like Starlink; space stations such as the ISS; scientific satellites like the Hubble; Earth observation satellites from companies like Planet Labs, Umbra, and HawkEye 360; GPS; miniature CubeSats for education and research; and military/defense satellites.

Loading next visibility...
Identifier
67998, 2026-039N
Orbit
LEO
Country
Flag of USUS
Related business
Manufacturer
SpaceX/Seattle
Mission
Operational Commercial Communications
Bus & Motor
STARLINK V2MO, Unknown motor
Mass
575 kg wet, ~530 kg dry
Launch date (UTC)
2026-02-27 (2 months ago)
Launch vehicle
FALCON 9
Launch site
Air Force Eastern Test Range (AFETR)
Object type
Payload
Rocket body
Debris
Shape & HBR
Box + 2 Pan, 17.7 m
Radar Cross Section
36.964 m²

Expand to show TLE details & history
Last TLE update: 8 hours ago

TLE from 8 hours ago
0 STARLINK-36988
1 67998U 26039N   26112.15081995  .00011594  00000-0  43006-3 0  9995
2 67998  42.9966 163.1830 0001246 234.5083 125.5652 15.27587902  8355
Epoch: 2026-04-22T03:37Z
TLE epoch observation values (Epoch: 2026-04-22T03:37:10.843Z)
Latitude
-0.00005°
Longitude
-101.32861°
Altitude
483.298 km
Speed
7.625 km/s
True Right ascension
10h 52m 43s
True Declination
0° 00' 00"
Sunlit
Object was in full shadow at epoch
Visualization orbit readout
Latitude
Unknown
Longitude
Unknown
Altitude
Unknown
Speed
Unknown
Apparent Right ascension
Unknown
Apparent Declination
Unknown
Sunlit
N/A
Visualization observer readout
Local Sidereal Time
18:56:43
Azimuth
Unknown
Elevation
Unknown
Doppler factor
Unknown
Orbital elements
Apogee altitude
485.826 km
Perigee altitude
484.116 km
Semi-major axis
6,863.108 km
Eccentricity
0.00012
Inclination
42.9966°
RAAN
163.183°
Arg. of periapsis
234.5083°
True anomaly
125.57681°
Mean anomaly
125.5652°
Eccentric anomaly
125.57101°
Mean motion
3.81735 °/min
Orbital period
94.31 mins
BSTAR
0.00043006
Loading maneuver chart data...
Computing Atmospheric mass density...
Loading historical data...
Loading historical data...
Loading historical data...
Loading historical data...
Loading historical data...
Loading historical data...
Loading historical data...

Documentation

Showing up to 5 results
|